CW6421 Weather Reports


Display with metric or nautical units.
time (UTC)temp
F
wind
direction
speed
MPH
gust
MPH
rain 1hr
in
rain 24hr
in
rain mn
in
humidity
%
barometer
mb
20260831182528 66 274 19.0 40.0 0.00 0.07 0.00 73 1011.5
20260831181532 67 259 15.0 39.0 0.00 0.07 0.00 72 1011.5
20260831180529 67 250 16.0 36.0 0.00 0.07 0.00 70 1010.5
20260831175530 67 251 17.0 43.0 0.00 0.07 0.00 69 1010.5
20260831173530 68 246 25.0 38.0 0.00 0.07 0.00 68 1010.5
20260831172529 69 253 24.0 33.0 0.00 0.07 0.00 66 1010.5
20260831171532 71 231 16.0 38.0 0.00 0.07 0.00 63 1010.5
20260831170528 72 229 15.0 42.0 0.00 0.07 0.00 61 1010.2
20260831164533 75 229 20.0 28.0 0.00 0.07 0.00 53 1010.2
20260831163528 75 230 18.0 27.0 0.00 0.07 0.00 53 1010.2
20260831161532 75 233 21.0 31.0 0.00 0.07 0.00 53 1010.2
20260831160531 75 237 21.0 32.0 0.00 0.07 0.00 53 1010.4
20260831155528 75 248 22.0 31.0 0.00 0.07 0.00 54 1010.4
20260831154533 76 248 19.0 26.0 0.00 0.07 0.00 55 1010.4
20260831153529 76 231 17.0 25.0 0.00 0.07 0.00 55 1010.4
20260831152529 76 243 16.0 30.0 0.00 0.07 0.00 55 1010.4
20260831151532 76 240 19.0 30.0 0.00 0.07 0.00 55 1010.4
20260831150531 76 224 15.0 30.0 0.00 0.07 0.00 55 1010.7
20260831145530 76 235 18.0 28.0 0.00 0.07 0.00 56 1010.7
20260831144533 76 250 15.0 29.0 0.00 0.07 0.00 56 1010.7
20260831143530 78 249 16.0 30.0 0.00 0.07 0.00 56 1010.7
20260831142531 78 241 16.0 32.0 0.00 0.07 0.00 56 1010.7
20260831141533 78 235 18.0 29.0 0.00 0.07 0.00 56 1010.7
20260831135529 78 239 19.0 31.0 0.00 0.07 0.00 56 1011.1
20260831134531 76 193 15.0 29.0 0.00 0.07 0.00 58 1011.1
20260831133528 76 206 15.0 28.0 0.00 0.07 0.00 58 1011.1
20260831132529 78 208 17.0 32.0 0.00 0.07 0.00 58 1011.1
20260831131534 77 203 15.0 31.0 0.00 0.07 0.00 60 1011.1
20260831130530 76 209 14.0 32.0 0.00 0.07 0.00 60 1011.2
20260831125529 78 208 14.0 26.0 0.00 0.07 0.00 57 1011.2
20260831124533 77 234 14.0 31.0 0.00 0.07 0.00 60 1011.2
20260831123529 76 234 12.0 29.0 0.00 0.07 0.00 61 1011.2
20260831122529 76 242 12.0 30.0 0.00 0.07 0.00 61 1011.2
20260831121532 77 237 13.0 26.0 0.00 0.07 0.00 62 1011.2
20260831120531 76 227 11.0 30.0 0.00 0.07 0.00 63 1011.4
20260831114532 76 217 11.0 29.0 0.00 0.07 0.00 64 1011.4
20260831113530 77 221 13.0 33.0 0.00 0.07 0.00 64 1011.4
20260831111532 75 218 11.0 16.0 0.00 0.07 0.00 68 1011.4
20260831110530 75 200 10.0 15.0 0.00 0.07 0.00 68 1011.7
20260831105529 75 208 10.0 15.0 0.01 0.07 0.00 70 1011.7
20260831103530 72 220 10.0 14.0 0.02 0.07 0.00 75 1011.7
20260831102530 71 221 10.0 13.0 0.03 0.07 0.00 76 1011.7
20260831100530 68 215 9.0 13.0 0.04 0.07 0.00 82 1012.0
20260831095530 67 227 10.0 15.0 0.04 0.06 0.00 83 1012.0
20260831094531 66 245 10.0 13.0 0.04 0.05 0.00 83 1012.0
20260831093530 66 241 9.0 13.0 0.03 0.05 0.00 84 1012.0
20260831091532 64 213 9.0 14.0 0.03 0.03 0.00 86 1012.0
20260831090531 63 213 9.0 17.0 0.03 0.03 0.00 86 1012.3
20260831085528 62 216 7.0 16.0 0.02 0.02 0.00 85 1012.3
20260831084533 62 222 10.0 16.0 0.02 0.02 0.00 85 1012.3
20260831083530 62 220 11.0 16.0 0.01 0.01 0.00 84 1012.3
20260831082529 62 222 10.0 15.0 0.01 0.01 0.00 84 1012.3
20260831081533 62 242 11.0 17.0 0.00 0.00 0.00 84 1012.3
20260831075528 62 235 11.0 12.0 0.00 0.00 0.00 82 1011.6
20260831074532 62 229 8.0 11.0 0.00 0.00 0.00 81 1011.6
20260831073529 62 221 9.0 11.0 0.00 0.00 0.00 80 1011.6
20260831072528 63 238 9.0 12.0 0.00 0.00 0.00 79 1011.6
20260831071533 63 175 7.0 12.0 0.00 0.00 0.00 78 1011.6
20260831070531 64 188 8.0 10.0 0.00 0.00 0.00 76 1011.5
20260831065529 64 178 10.0 12.0 0.00 0.00 0.00 75 1011.5
20260831063529 64 139 5.0 7.0 0.00 0.00 0.00 75 1011.5
20260831062530 64 135 4.0 6.0 0.00 0.00 0.00 75 1011.5
20260831061532 64 135 4.0 7.0 0.00 0.00 0.00 75 1011.5
20260831060529 64 131 4.0 5.0 0.00 0.00 0.00 75 1011.8
20260831055528 64 136 5.0 5.0 0.00 0.00 0.00 75 1011.8
20260831053529 64 67 4.0 5.0 0.00 0.00 0.00 75 1011.8
20260831052529 64 72 2.0 5.0 0.00 0.00 0.00 75 1011.8
20260831051531 64 128 1.0 5.0 0.00 0.00 0.00 75 1011.8
20260831050531 64 147 3.0 5.0 0.00 0.00 0.00 75 1012.0
20260831045529 63 139 2.0 5.0 0.00 0.00 0.00 75 1012.0
20260831044532 63 140 1.0 5.0 0.00 0.00 0.00 75 1012.0
20260831042530 63 143 2.0 6.0 0.00 0.00 0.00 75 1012.0
20260831040530 63 135 4.0 6.0 0.00 0.00 0.00 75 1012.1
20260831035530 63 144 4.0 7.0 0.00 0.00 0.00 75 1012.1
20260831034532 63 104 2.0 7.0 0.00 0.00 0.00 75 1012.1
20260831033528 63 106 2.0 6.0 0.00 0.01 0.00 75 1012.1
20260831032528 64 90 3.0 7.0 0.00 0.01 0.00 74 1012.1
20260831031531 64 120 3.0 7.0 0.00 0.01 0.00 74 1012.1
20260831030529 64 102 3.0 8.0 0.00 0.01 0.00 74 1012.4
20260831025528 64 104 4.0 7.0 0.00 0.01 0.00 74 1012.4
20260831024530 64 197 4.0 8.0 0.00 0.01 0.00 73 1012.4
20260831023532 64 188 4.0 7.0 0.00 0.01 0.00 73 1012.4
20260831022527 64 180 2.0 8.0 0.00 0.01 0.00 73 1012.4
20260831021531 64 176 4.0 7.0 0.00 0.01 0.00 73 1012.4
20260831020529 64 177 4.0 7.0 0.00 0.01 0.00 73 1013.0
20260831015529 65 168 5.0 7.0 0.00 0.01 0.00 72 1013.0
20260831013529 65 182 6.0 8.0 0.00 0.01 0.00 72 1013.0
20260831011532 65 176 5.0 8.0 0.00 0.01 0.00 72 1013.0
20260831004529 66 190 5.0 6.0 0.00 0.01 0.00 71 1013.1
20260831003531 66 204 3.0 5.0 0.00 0.01 0.00 71 1013.1
20260831002529 67 190 3.0 5.0 0.00 0.01 0.00 70 1013.1
20260831001532 67 208 4.0 5.0 0.00 0.01 0.00 70 1013.1
20260831000528 67 190 2.0 6.0 0.00 0.01 0.00 70 1013.0
20260830235528 67 206 3.0 6.0 0.00 0.01 0.00 69 1013.0
20260830234530 67 269 3.0 7.0 0.00 0.01 0.00 69 1013.0
20260830233528 68 266 3.0 7.0 0.00 0.01 0.00 69 1013.0
20260830232530 68 267 4.0 6.0 0.00 0.01 0.00 68 1013.0
20260830231533 68 240 3.0 6.0 0.00 0.01 0.00 68 1013.0
20260830230533 68 247 4.0 6.0 0.00 0.01 0.00 67 1013.1
20260830225527 68 245 6.0 7.0 0.00 0.01 0.00 67 1013.1
20260830222529 69 220 7.0 7.0 0.00 0.01 0.00 66 1013.1
20260830221531 69 177 6.0 7.0 0.00 0.01 0.00 66 1013.1
20260830220529 69 177 5.0 6.0 0.00 0.01 0.00 66 1013.0
20260830214530 69 166 6.0 7.0 0.00 0.01 0.00 66 1013.0
20260830213531 69 152 5.0 7.0 0.00 0.01 0.00 65 1013.0
20260830212528 69 150 4.0 7.0 0.00 0.01 0.00 65 1013.0
20260830211531 69 196 6.0 8.0 0.00 0.01 0.00 65 1013.0
20260830210529 69 196 6.0 11.0 0.00 0.01 0.00 65 1012.9
20260830205530 69 195 6.0 12.0 0.00 0.01 0.00 64 1012.9
20260830204538 69 239 4.0 12.0 0.00 0.01 0.00 64 1012.9
20260830203530 70 231 5.0 11.0 0.00 0.01 0.00 63 1012.9
20260830202528 70 227 4.0 11.0 0.00 0.01 0.00 62 1012.9
20260830201531 70 247 4.0 11.0 0.00 0.01 0.00 62 1012.9
20260830200529 71 260 4.0 15.0 0.00 0.01 0.00 62 1012.7
20260830195529 71 256 4.0 14.0 0.00 0.01 0.00 61 1012.7
20260830194531 71 260 4.0 14.0 0.00 0.01 0.00 61 1012.7
20260830193532 71 252 6.0 16.0 0.00 0.01 0.00 60 1012.7
20260830192529 71 259 6.0 15.0 0.00 0.01 0.00 60 1012.7
20260830191532 72 293 9.0 14.0 0.00 0.01 0.00 60 1012.7
20260830185536 72 289 8.0 22.0 0.00 0.01 0.00 59 1012.0
20260830184531 72 271 10.0 21.0 0.00 0.01 0.00 58 1012.0
20260830183530 73 286 10.0 21.0 0.00 0.01 0.00 58 1012.0